Вернуться в каталог

STARLINK-34771

АктивенСвязьVLEO
NORAD 65078·PAYLOAD·🇺🇸 United States

Запущен Aug 4, 2025 с Cape Canaveral Space Force Station

Loading…

Ближайшие Пролёты (ближайшие 24 часа)

TLE

СвежийSource: CelesTrak SupGP

Эпоха: Sep 14, 2026, 22:30 UTC

1 65078C 25167A   26257.93798611  .00014661  00000+0  43308-3 0  2578
2 65078  53.1579 223.6907 0001428  93.9031 158.9958 15.34388966    16

Отслеживайте STARLINK-34771 в реальном времени с AllMySat

Download on the App Store